Regional Weather Roundup
Issued by NWS Upton, NY

Current Version | Previous Version | Text Only | Print | Product List | Glossary On
Versions: 1 2 3 4 5 6 7 8 9 10 11 12 13 14 15 16 17 18 19 20 21 22 23 24 25 26 27 28 29 30 31 32 33 34 35 36 37 38 39 40 41 42 43 44 45 46 47 48 49 50
000
ASUS41 KOKX 182307
RWROKX

REGIONAL WEATHER ROUNDUP
NATIONAL WEATHER SERVICE NEW YORK NY
700 PM EDT SAT APR 18 2015

NOTE: "FAIR" INDICATES FEW OR NO CLOUDS BELOW 12,000 FEET WITH NO
SIGNIFICANT WEATHER AND/OR OBSTRUCTIONS TO VISIBILITY.

NYZ071-072-176-178-NJZ106-104-190000-
NEW YORK CITY METRO AREA


CITY           SKY/WX    TMP DP  RH WIND       PRES   REMARKS
CENTRAL PARK   CLEAR     74  41  30 CALM      29.88R
LAGUARDIA APRT PTCLDY    71  43  36 S9        29.85S
KENNEDY INTL   PTCLDY    61  42  49 S22       29.88S
NEWARK/LIBERTY PTCLDY    80  37  21 W15       29.85S
BRNX BOT. GARD   N/A     70  43  37 E1        29.86S
TETERBORO      PTCLDY    80  36  20 W10       29.84R
$$

NYZ177-179-078>081-190000-
LONG ISLAND NEW YORK

CITY           SKY/WX    TMP DP  RH WIND       PRES   REMARKS
FARMINGDALE    CLEAR     63  42  46 SW16G23   29.89R
ISLIP          PTCLDY    61  43  51 SW13      29.88R
SHIRLEY        CLEAR     60  43  53 SW12      29.89S
WESTHAMPTON    CLEAR     58  42  55 SW18G24   29.89S
MONTAUK POINT    N/A     60  43  53 SW13G25   29.87R
$$

NYZ052-065-067-190000-
HUDSON VALLEY

CITY           SKY/WX    TMP DP  RH WIND       PRES   REMARKS
WHITE PLAINS   PTCLDY    68  42  38 S6        29.86R
NEWBURGH       CLEAR     73  32  21 NW20G32   29.91R
MONTGOMERY     CLEAR     73  31  21 N17G28    29.91R
POUGHKEEPSIE   CLEAR     75  31  19 NW12G22   29.88R
ALBANY         PTCLDY    67  28  23 NW20G29   29.95R
$$

NJZ001-105-106-008-010-013-015-019>022-104-190000-
NEW JERSEY

CITY           SKY/WX    TMP DP  RH WIND       PRES   REMARKS
NEWARK/LIBERTY PTCLDY    80  37  21 W15       29.85S
TETERBORO      PTCLDY    80  36  20 W10       29.84R
CALDWELL       CLEAR     80  38  22 W7        29.86R
MORRISTOWN     CLEAR     79  39  24 NW12      29.88R
SOMERVILLE     CLEAR     79  38  22 VRB3      29.87R
SUSSEX         CLEAR     77  38  24 N12G21    29.92R
ANDOVER          N/A     77  33  20 N7        29.90R
TRENTON        CLEAR     79  38  22 W8        29.90R
MILLVILLE      CLEAR     70  48  45 SW6       29.95R
ATLANTIC CITY  CLEAR     68  46  45 S8        29.94R
WRIGHTSTOWN    CLEAR     76  40  27 W8        29.88R
TOMS RIVER     CLEAR     70  46  43 S10       29.92R
BELMAR         CLEAR     72  46  40 S7        29.90R
$$

PAZ047>061-062-071-190000-
EASTERN PENNSYLVANIA

CITY           SKY/WX    TMP DP  RH WIND       PRES   REMARKS
PHILADELPHIA   MOCLDY    79  40  24 W14       29.93R
ALLENTOWN      PTCLDY    77  39  25 W9        29.91R
SCRANTON       CLEAR     72  39  30 N20G28    29.97R
$$

CTZ002-004>006-009-010-012-RIZ004-006-007-MAZ004-011-015-190000-
SOUTHERN NEW ENGLAND
 IN CT

CITY           SKY/WX    TMP DP  RH WIND       PRES   REMARKS
BRADLEY INTL   PTCLDY    72  30  21 NW17G31   29.86R
HARTFORD       CLEAR     75  35  23 NW14G22   29.85R
DANBURY        CLEAR     75  31  19 NW9G24    29.88R
WTRBRY/OXFORD  PTCLDY    75  36  23 NW14G23   29.88R
BRIDGEPORT     CLEAR     60  45  57 SW8       29.85R
MERIDEN        CLEAR     78  35  21 NW18G26   29.84R
NEW HAVEN      PTCLDY    60  43  53 SW13      29.86R
CHESTER        FAIR      66  43  42 SW16      29.85S
GROTON         CLEAR     58  42  55 W12       29.85R
WILLIMANTIC    CLEAR     75  37  25 NW18      29.84R

 IN RI

CITY           SKY/WX    TMP DP  RH WIND       PRES   REMARKS
PROVIDENCE     CLOUDY    70  41  34 SW15      29.83R
BLOCK ISLAND   CLEAR     54  41  62 SW20G28   29.85S
WESTERLY       CLEAR     58  43  57 SW8       29.86R

 IN MA

CITY           SKY/WX    TMP DP  RH WIND       PRES   REMARKS
BOSTON         PTCLDY    51  41  68 N13G21    29.92R
WORCESTER      CLEAR     63  38  39 N23G30    29.89R
WESTFIELD      CLEAR     71  32  23 NW23G37   29.87R
PROVINCETOWN   PTCLDY    55  43  62 SW13      29.83R
NANTUCKET      PTCLDY    48  42  80 SW8       29.86S
$$

ANZ330-335-338-340-345-350-353-355-190000-
COASTAL MARINE OBSERVATIONS


STATION/POSITION TIME  SKY/WX   TEMP    WIND        PRES    VSBY  WAVE
                                AIR SEA DIR/SP/G                  HT/PER
                 (UTC)          (F)     (DEG/KT/KT) (MB)    (MI)  (FT/S)
NY HARB ENTRANCE 2250            53 47  200/ 17/ 19 1011.4          3/13
4S FIRE IS       2203               45                N/A           3/ 7
20S FIRE ISLAND  2150               46              1012.7          3/ 8
23SW MTP         NOT AVBL
HUDSON CANYON    NOT AVBL
EXECUTION ROCKS  NOT AVBL
WESTERN LI SOUND NOT AVBL
CENTRAL LI SOUND NOT AVBL
EASTERN LI SOUND 2200            55     220/ 12/ 14   N/A
ROBBINS REEF     2200            78     270/ 19/ 24 1009.5
$$


>>>>>>>>>>>>>>>>>>>>>>>>>>>> KEY <<<<<<<<<<<<<<<<<<<<<<<<<<<
>                                                          <
>     SKY/WX - SKY CONDITION/PRESENT WEATHER               <
>     TMP    - TEMPERATURE IN FAHRENHEIT                   <
>     DP     - DEWPOINT IN FAHRENHEIT                      <
>     RH     - RELATIVE HUMIDITY IN PERCENT                <
>     WIND   - DIRECTION AND SPEED IN MPH                  <
>     PRES   - MEAN SEA LEVEL PRESSURE IN INCHES OF HG     <
>     WCI    - WIND CHILL INDEX                            <
>     VSB    - VISIBILITY IN MILES                         <
>     HX     - HEAT INDEX                                  <
>     TC     - TEMPERATURE IN CELSIUS                      <
>     VRB    - VARIABLE WIND DIRECTION                     <
>                                                          <
>>>>>>>>>>>>>>>>>>>>>>>>>>>> KEY <<<<<<<<<<<<<<<<<<<<<<<<<<<




USA.gov is the U.S. government's official web portal to all federal, state and local government web resources and services.